STARLINK-11669, 63548

Orbit data source: Space-Track

STARLINK-11669, 63548 is a payload satellite owned by SpaceX/Seattle (US) in LEO that was launched on Sun, 13 Apr 2025 UTC via an FALCON 9 launch vehicle from the Air Force Eastern Test Range (AFETR). Payload-class satellites include a variety of spacecraft equipped with specific instruments for various scientific and technological missions. These include communications satellites like Starlink; space stations such as the ISS; scientific satellites like the Hubble; Earth observation satellites from companies like Planet Labs, Umbra, and HawkEye 360; GPS; miniature CubeSats for education and research; and military/defense satellites.

Loading next visibility...
Identifier
63548, 2025-075A
Orbit
LEO
Last TLE update
3 hours ago
Origin
Manufacturer
SpaceX/Seattle
Mission
Operational spacecraft
Bus & Motor
STARLINK V2M, Unknown motor
Mass
730 kg wet, ~700 kg dry
Launch date (UTC)
2025-04-13 (3 weeks ago)
Launch vehicle
FALCON 9
Launch site
Air Force Eastern Test Range (AFETR)
Object type
Payload
Rocket body
Debris
Shape & HBR
Unknown
Radar Cross Section
Large (>1 m²)

Expand to show TLE details & history

TLE from 3 hours ago
0 STARLINK-11669
1 63548U 25075A   25126.21815303 -.00001280  00000-0 -44898-5 0  9995
2 63548  42.9968 209.6331 0001708 274.1066  85.9609 15.77848551  4857
Epoch: 2025-05-06T05:14Z
Definitive object data (Epoch: 2025-05-06T05:14:08.421Z)
Latitude
-0.00003°
Longitude
-93.22253°
Altitude
336.227 km
Speed
7.709 km/s
True Right ascension
13h 58m 31s
True Declination
0° 00' 00"
Sunlit
Object was in full shadow at TLE epoch
Visualization TLE readout
Latitude
19.55715°
Longitude
-71.76301°
Altitude
336.307 km
Speed
7.71 km/s
Apparent Right ascension
12h 55m 22s
Apparent Declination
-42° 46' 25"
Sunlit
Object is in full shadow
Visualization observer readout
Local Sidereal Time
16:21:10
Azimuth
215.18° SW
Elevation
-4.87°
Doppler factor
1
Orbital elements
Apogee altitude
339.673 km
Perigee altitude
337.378 km
Semi-major axis
6,716.662 km
Eccentricity
0.0001708
Inclination
42.9968°
RAAN
209.6331°
Arg. of periapsis
274.1066°
True anomaly
85.98042°
Mean anomaly
85.9609°
Eccentric anomaly
85.97066°
Mean motion
3.94287 °/min
BSTAR
-0.0000044898
Orbital period
91.3 mins
Loading maneuver chart data...
Loading SW <> Apogee altitude chart data...
Loading historical data...
Loading historical data...
Loading historical data...
Loading historical data...
Loading historical data...
Loading historical data...
Loading historical data...

STARLINK-11669 Visibility forecast

Observer location: undefined°, undefined°

Span
Click to sort rows by Start time (UTC) header in descending order
Start Az.
Max El. time (UTC)
Max El. Az.
Max El.
End time (UTC)
End Az.
4 mins2025-05-06 10:03:50.461Z246.694° WSW2025-05-06 10:04:50.461Z231.544° WSW43.603°2025-05-06 10:07:50.461Z72.639° E
|